LSZHLSZS

Guest
Details From LSZH - Zurich
To LSZS - Samedan
Flight Number -
Tags decoded
Created
Modified
Stats Distance 106 nm / 196 km
Max Altitude 0 ft / 0 m
Waypoints 7
Social Downloads 2
Likes 0
Share VATSIM

Download

Looking for another format? Having issues loading an existing format? Contact us
Advertisement - Login to hide

Notes

Requested: LSZH ALBIX MOSIT SOPER PIXOS ABREG LSZS

Route

LSZH ALBIX MOSIT SOPER PIXOS ABREG LSZS

ID Type Via Altitude (ft/m) Position (lat/lon) Dist (leg/tot) Name
O LSZH APT - 0 / 0 47.46349 / 8.54996 - / 0 nm Zurich
ALBIX FIX - 0 / 0 47.24972 / 8.56444 12 / 12 nm
MOSIT FIX - 0 / 0 47.06917 / 8.74389 13 / 25 nm
SOPER FIX - 0 / 0 46.88944 / 8.94444 13 / 39 nm
PIXOS FIX - 0 / 0 46.60528 / 8.98306 17 / 56 nm
ABREG FIX - 0 / 0 46.30694 / 9.55139 29 / 86 nm
O LSZS APT - 0 / 0 46.53421 / 9.88394 19 / 105 nm Samedan

Altitude Profile

Advertisement - Login to hide

LSZH

Details ICAO LSZH (ZRH)
Name Zurich
Region Switzerland
Timezone Europe/Zurich (UTC+1.0)
Stats Elevation 1,416 ft / 432 m (AMSL)
Location 47.463500° 8.549950°
Runways 3
Magnetic Variation 2.480° E

METAR

LSZH 190350Z VRB01KT 9000 NSC M06/M06 Q1016 NOSIG

Decode

TAF

TAF LSZH 190225Z 1903/2009 VRB03KT CAVOK TXM00/1914Z TNM05/1906Z TNM04/2004Z PROB30 1904/1908 3000 BCFG SCT003 BECMG 1923/2002 9999 BKN040 PROB40 TEMPO 2004/2009 4000 -SN SCT008 BKN010

Decode

Departure Runways

ID Width Length Bearing (true/mag) Surface Threshold Overrun Markings Lighting
10 197 ft / 60 m 8,196 ft / 2,498 m 95.99° / 93.51° CONCRETE 0 ft / 0 m 62 ft / 19 m APP CENTERLINE EDGE THRESHOLD SALS REIL-UNI
14 197 ft / 60 m 10,816 ft / 3,297 m 137.29° / 134.81° CONCRETE 492 ft / 150 m 75 ft / 23 m PREC-APP CENTERLINE EDGE THRESHOLD CALVERT-ILS TDZ REIL-UNI
16 197 ft / 60 m 12,181 ft / 3,713 m 155.03° / 152.55° CONCRETE 0 ft / 0 m 62 ft / 19 m PREC-APP CENTERLINE EDGE THRESHOLD CALVERT-ILS TDZ REIL-UNI
28 197 ft / 60 m 8,196 ft / 2,498 m 276.02° / 273.54° CONCRETE 0 ft / 0 m 276 ft / 84 m PREC-APP CENTERLINE EDGE THRESHOLD CALVERT-ILS REIL-UNI
32 197 ft / 60 m 10,816 ft / 3,297 m 317.31° / 314.83° CONCRETE 0 ft / 0 m 82 ft / 25 m APP CENTERLINE EDGE THRESHOLD SALS
34 197 ft / 60 m 12,181 ft / 3,713 m 335.05° / 332.57° CONCRETE 1,542 ft / 470 m 49 ft / 15 m PREC-APP CENTERLINE EDGE THRESHOLD CALVERT-ILS TDZ REIL-UNI

LSZS

Details ICAO LSZS (SMV)
Name Samedan
Region Switzerland
Timezone Europe/Zurich (UTC+1.0)
Stats Elevation 5,600 ft / 1,707 m (AMSL)
Location 46.534200° 9.883970°
Runways 1
Magnetic Variation 2.789° E

METAR

LSZS 190350Z AUTO 00000KT CAVOK M18/M21 Q1011

Decode

TAF

Not found

Destination Runways

ID Width Length Bearing (true/mag) Surface Threshold Overrun Markings Lighting
03 131 ft / 40 m 6,045 ft / 1,842 m 29.15° / 26.36° ASPHALT 0 ft / 0 m 0 ft / 0 m APP EDGE THRESHOLD MALSR
21 131 ft / 40 m 6,045 ft / 1,842 m 209.15° / 206.37° ASPHALT 361 ft / 110 m 0 ft / 0 m APP EDGE THRESHOLD MALSR

Popular Alternatives